owner,sensor,date,latitude,longitude,vertical_datum,wind_speed,wind_to_direction,wind_speed_of_gust,qcFlag 
WAVCIS,ioos:station:WAVCIS:CSI06:1,2008-02-01T00:00:00Z,28.8667,-90.4833,10.0,15.18,64.0,,'11111222,11111222,99999999' 
WAVCIS,ioos:station:WAVCIS:CSI06:1,2008-02-01T01:00:00Z,28.8667,-90.4833,10.0,12.61,60.0,,'11111222,11111222,99999999' 
WAVCIS,ioos:station:WAVCIS:CSI06:1,2008-02-01T02:00:00Z,28.8667,-90.4833,10.0,14.19,58.0,,'11111222,11111222,99999999' 
WAVCIS,ioos:station:WAVCIS:CSI06:1,2008-02-01T03:00:00Z,28.8667,-90.4833,10.0,14.74,53.0,,'11111222,11111222,99999999' 
WAVCIS,ioos:station:WAVCIS:CSI06:1,2008-02-01T04:00:00Z,28.8667,-90.4833,10.0,13.75,57.0,,'11111222,11111222,99999999' 
WAVCIS,ioos:station:WAVCIS:CSI06:1,2008-02-01T05:00:00Z,28.8667,-90.4833,10.0,15.43,52.0,,'11111222,11111222,99999999' 
WAVCIS,ioos:station:WAVCIS:CSI06:1,2008-02-01T06:00:00Z,28.8667,-90.4833,10.0,19.19,45.0,,'11111222,11111222,99999999' 
WAVCIS,ioos:station:WAVCIS:CSI06:1,2008-02-01T07:00:00Z,28.8667,-90.4833,10.0,19.47,49.0,,'11111222,11111222,99999999' 
WAVCIS,ioos:station:WAVCIS:CSI06:1,2008-02-01T08:00:00Z,28.8667,-90.4833,10.0,16.27,41.0,,'11111222,11111222,99999999' 
WAVCIS,ioos:station:WAVCIS:CSI06:1,2008-02-01T09:00:00Z,28.8667,-90.4833,10.0,14.65,34.0,,'11111222,11111222,99999999' 
WAVCIS,ioos:station:WAVCIS:CSI06:1,2008-02-01T10:00:00Z,28.8667,-90.4833,10.0,13.71,33.0,,'11111222,11111222,99999999' 
WAVCIS,ioos:station:WAVCIS:CSI06:1,2008-02-01T11:00:00Z,28.8667,-90.4833,10.0,11.36,29.0,,'11111222,11111222,99999999' 
WAVCIS,ioos:station:WAVCIS:CSI06:1,2008-02-01T12:00:00Z,28.8667,-90.4833,10.0,10.21,21.0,,'11111222,11111222,99999999' 
WAVCIS,ioos:station:WAVCIS:CSI06:1,2008-02-01T13:00:00Z,28.8667,-90.4833,10.0,10.55,18.0,,'11111222,11111222,99999999' 
WAVCIS,ioos:station:WAVCIS:CSI06:1,2008-02-01T14:00:00Z,28.8667,-90.4833,10.0,8.36,16.0,,'11111222,11111222,99999999' 
WAVCIS,ioos:station:WAVCIS:CSI06:1,2008-02-01T15:00:00Z,28.8667,-90.4833,10.0,7.37,11.0,,'11111222,11111222,99999999' 
WAVCIS,ioos:station:WAVCIS:CSI06:1,2008-02-01T16:00:00Z,28.8667,-90.4833,10.0,6.085,11.0,,'11111222,11111222,99999999' 
WAVCIS,ioos:station:WAVCIS:CSI06:1,2008-02-01T17:00:00Z,28.8667,-90.4833,10.0,4.747,348.0,,'11111222,11111222,99999999' 
WAVCIS,ioos:station:WAVCIS:CSI06:1,2008-02-01T18:00:00Z,28.8667,-90.4833,10.0,3.362,331.0,,'11111222,11111222,99999999' 
WAVCIS,ioos:station:WAVCIS:CSI06:1,2008-02-01T19:00:00Z,28.8667,-90.4833,10.0,1.897,316.0,,'11111222,11111222,99999999' 
WAVCIS,ioos:station:WAVCIS:CSI06:1,2008-02-01T20:00:00Z,28.8667,-90.4833,10.0,1.21,4.0,,'11111222,11111222,99999999' 
WAVCIS,ioos:station:WAVCIS:CSI06:1,2008-02-01T21:00:00Z,28.8667,-90.4833,10.0,0.851,257.0,,'11111222,11111222,99999999' 
WAVCIS,ioos:station:WAVCIS:CSI06:1,2008-02-01T22:00:00Z,28.8667,-90.4833,10.0,1.49,122.0,,'11111222,11111222,99999999' 
WAVCIS,ioos:station:WAVCIS:CSI06:1,2008-02-01T23:00:00Z,28.8667,-90.4833,10.0,1.031,183.0,,'11111222,11111222,99999999' 
WAVCIS,ioos:station:WAVCIS:CSI06:1,2008-02-02T00:00:00Z,28.8667,-90.4833,10.0,0.67,101.0,,'11111222,11111222,99999999' 
WAVCIS,ioos:station:WAVCIS:CSI06:1,2008-02-02T01:00:00Z,28.8667,-90.4833,10.0,1.146,194.0,,'11111222,11111222,99999999' 
WAVCIS,ioos:station:WAVCIS:CSI06:1,2008-02-02T02:00:00Z,28.8667,-90.4833,10.0,2.409,197.0,,'11111222,11111222,99999999' 
WAVCIS,ioos:station:WAVCIS:CSI06:1,2008-02-02T03:00:00Z,28.8667,-90.4833,10.0,3.824,249.0,,'11111222,11111222,99999999' 
WAVCIS,ioos:station:WAVCIS:CSI06:1,2008-02-02T04:00:00Z,28.8667,-90.4833,10.0,4.82,239.0,,'11111222,11111222,99999999' 
WAVCIS,ioos:station:WAVCIS:CSI06:1,2008-02-02T05:00:00Z,28.8667,-90.4833,10.0,3.978,241.0,,'11111222,11111222,99999999' 
WAVCIS,ioos:station:WAVCIS:CSI06:1,2008-02-02T06:00:00Z,28.8667,-90.4833,10.0,2.895,218.0,,'11111222,11111222,99999999' 
WAVCIS,ioos:station:WAVCIS:CSI06:1,2008-02-02T07:00:00Z,28.8667,-90.4833,10.0,5.786,218.0,,'11111222,11111222,99999999' 
WAVCIS,ioos:station:WAVCIS:CSI06:1,2008-02-02T08:00:00Z,28.8667,-90.4833,10.0,5.772,206.0,,'11111222,11111222,99999999' 
WAVCIS,ioos:station:WAVCIS:CSI06:1,2008-02-02T10:00:00Z,28.8667,-90.4833,10.0,6.722,199.0,,'11111222,11111222,99999999' 
WAVCIS,ioos:station:WAVCIS:CSI06:1,2008-02-02T11:00:00Z,28.8667,-90.4833,10.0,6.06,196.0,,'11111222,11111222,99999999' 
WAVCIS,ioos:station:WAVCIS:CSI06:1,2008-02-02T12:00:00Z,28.8667,-90.4833,10.0,4.954,196.0,,'11111222,11111222,99999999' 
WAVCIS,ioos:station:WAVCIS:CSI06:1,2008-02-02T13:00:00Z,28.8667,-90.4833,10.0,4.727,198.0,,'11111222,11111222,99999999' 
WAVCIS,ioos:station:WAVCIS:CSI06:1,2008-02-02T14:00:00Z,28.8667,-90.4833,10.0,4.212,201.0,,'11111222,11111222,99999999' 
WAVCIS,ioos:station:WAVCIS:CSI06:1,2008-02-02T15:00:00Z,28.8667,-90.4833,10.0,4.959,198.0,,'11111222,11111222,99999999' 
WAVCIS,ioos:station:WAVCIS:CSI06:1,2008-02-02T16:00:00Z,28.8667,-90.4833,10.0,5.098,207.0,,'11111222,11111222,99999999' 
WAVCIS,ioos:station:WAVCIS:CSI06:1,2008-02-02T17:00:00Z,28.8667,-90.4833,10.0,3.677,211.0,,'11111222,11111222,99999999' 
WAVCIS,ioos:station:WAVCIS:CSI06:1,2008-02-02T18:00:00Z,28.8667,-90.4833,10.0,3.046,207.0,,'11111222,11111222,99999999' 
WAVCIS,ioos:station:WAVCIS:CSI06:1,2008-02-02T19:00:00Z,28.8667,-90.4833,10.0,2.428,227.0,,'11111222,11111222,99999999' 
WAVCIS,ioos:station:WAVCIS:CSI06:1,2008-02-02T20:00:00Z,28.8667,-90.4833,10.0,1.871,235.0,,'11111222,11111222,99999999' 
WAVCIS,ioos:station:WAVCIS:CSI06:1,2008-02-02T21:00:00Z,28.8667,-90.4833,10.0,2.041,227.0,,'11111222,11111222,99999999' 
WAVCIS,ioos:station:WAVCIS:CSI06:1,2008-02-02T22:00:00Z,28.8667,-90.4833,10.0,2.497,233.0,,'11111222,11111222,99999999' 
WAVCIS,ioos:station:WAVCIS:CSI06:1,2008-02-02T23:00:00Z,28.8667,-90.4833,10.0,5.919,257.0,,'11111222,11111222,99999999' 
WAVCIS,ioos:station:WAVCIS:CSI06:1,2008-02-03T00:00:00Z,28.8667,-90.4833,10.0,6.978,253.0,,'11111222,11111222,99999999' 
WAVCIS,ioos:station:WAVCIS:CSI06:1,2008-02-03T01:00:00Z,28.8667,-90.4833,10.0,6.464,231.0,,'11111222,11111222,99999999' 
WAVCIS,ioos:station:WAVCIS:CSI06:1,2008-02-03T02:00:00Z,28.8667,-90.4833,10.0,6.016,237.0,,'11111222,11111222,99999999' 
WAVCIS,ioos:station:WAVCIS:CSI06:1,2008-02-03T03:00:00Z,28.8667,-90.4833,10.0,6.854,229.0,,'11111222,11111222,99999999' 
WAVCIS,ioos:station:WAVCIS:CSI06:1,2008-02-03T04:00:00Z,28.8667,-90.4833,10.0,6.693,220.0,,'11111222,11111222,99999999' 
WAVCIS,ioos:station:WAVCIS:CSI06:1,2008-02-03T05:00:00Z,28.8667,-90.4833,10.0,7.03,221.0,,'11111222,11111222,99999999' 
WAVCIS,ioos:station:WAVCIS:CSI06:1,2008-02-03T06:00:00Z,28.8667,-90.4833,10.0,7.77,210.0,,'11111222,11111222,99999999' 
WAVCIS,ioos:station:WAVCIS:CSI06:1,2008-02-03T07:00:00Z,28.8667,-90.4833,10.0,7.68,211.0,,'11111222,11111222,99999999' 
WAVCIS,ioos:station:WAVCIS:CSI06:1,2008-02-03T08:00:00Z,28.8667,-90.4833,10.0,7.61,211.0,,'11111222,11111222,99999999' 
WAVCIS,ioos:station:WAVCIS:CSI06:1,2008-02-03T09:00:00Z,28.8667,-90.4833,10.0,7.07,215.0,,'11111222,11111222,99999999' 
WAVCIS,ioos:station:WAVCIS:CSI06:1,2008-02-03T10:00:00Z,28.8667,-90.4833,10.0,7.15,218.0,,'11111222,11111222,99999999' 
WAVCIS,ioos:station:WAVCIS:CSI06:1,2008-02-03T11:00:00Z,28.8667,-90.4833,10.0,7.63,219.0,,'11111222,11111222,99999999' 
WAVCIS,ioos:station:WAVCIS:CSI06:1,2008-02-03T12:00:00Z,28.8667,-90.4833,10.0,8.26,219.0,,'11111222,11111222,99999999' 
WAVCIS,ioos:station:WAVCIS:CSI06:1,2008-02-03T13:00:00Z,28.8667,-90.4833,10.0,9.17,216.0,,'11111222,11111222,99999999' 
WAVCIS,ioos:station:WAVCIS:CSI06:1,2008-02-03T14:00:00Z,28.8667,-90.4833,10.0,10.01,218.0,,'11111222,11111222,99999999' 
WAVCIS,ioos:station:WAVCIS:CSI06:1,2008-02-03T15:00:00Z,28.8667,-90.4833,10.0,8.24,221.0,,'11111222,11111222,99999999' 
WAVCIS,ioos:station:WAVCIS:CSI06:1,2008-02-03T16:00:00Z,28.8667,-90.4833,10.0,9.36,216.0,,'11111222,11111222,99999999' 
WAVCIS,ioos:station:WAVCIS:CSI06:1,2008-02-03T17:00:00Z,28.8667,-90.4833,10.0,8.26,213.0,,'11111222,11111222,99999999' 
WAVCIS,ioos:station:WAVCIS:CSI06:1,2008-02-03T18:00:00Z,28.8667,-90.4833,10.0,7.31,211.0,,'11111222,11111222,99999999' 
WAVCIS,ioos:station:WAVCIS:CSI06:1,2008-02-03T19:00:00Z,28.8667,-90.4833,10.0,5.729,202.0,,'11111222,11111222,99999999' 
WAVCIS,ioos:station:WAVCIS:CSI06:1,2008-02-03T20:00:00Z,28.8667,-90.4833,10.0,4.703,203.0,,'11111222,11111222,99999999' 
WAVCIS,ioos:station:WAVCIS:CSI06:1,2008-02-03T21:00:00Z,28.8667,-90.4833,10.0,4.188,200.0,,'11111222,11111222,99999999' 
WAVCIS,ioos:station:WAVCIS:CSI06:1,2008-02-03T22:00:00Z,28.8667,-90.4833,10.0,4.282,212.0,,'11111222,11111222,99999999' 
WAVCIS,ioos:station:WAVCIS:CSI06:1,2008-02-03T23:00:00Z,28.8667,-90.4833,10.0,5.752,226.0,,'11111222,11111222,99999999' 
WAVCIS,ioos:station:WAVCIS:CSI06:1,2008-02-04T00:00:00Z,28.8667,-90.4833,10.0,8.0,223.0,,'11111222,11111222,99999999' 
WAVCIS,ioos:station:WAVCIS:CSI06:1,2008-02-04T01:00:00Z,28.8667,-90.4833,10.0,8.1,219.0,,'11111222,11111222,99999999' 
WAVCIS,ioos:station:WAVCIS:CSI06:1,2008-02-04T02:00:00Z,28.8667,-90.4833,10.0,7.68,217.0,,'11111222,11111222,99999999' 
WAVCIS,ioos:station:WAVCIS:CSI06:1,2008-02-04T03:00:00Z,28.8667,-90.4833,10.0,8.39,217.0,,'11111222,11111222,99999999' 
WAVCIS,ioos:station:WAVCIS:CSI06:1,2008-02-04T04:00:00Z,28.8667,-90.4833,10.0,9.01,216.0,,'11111222,11111222,99999999' 
WAVCIS,ioos:station:WAVCIS:CSI06:1,2008-02-04T05:00:00Z,28.8667,-90.4833,10.0,8.34,216.0,,'11111222,11111222,99999999' 
WAVCIS,ioos:station:WAVCIS:CSI06:1,2008-02-04T06:00:00Z,28.8667,-90.4833,10.0,8.09,217.0,,'11111222,11111222,99999999' 
WAVCIS,ioos:station:WAVCIS:CSI06:1,2008-02-04T07:00:00Z,28.8667,-90.4833,10.0,8.59,216.0,,'11111222,11111222,99999999' 
WAVCIS,ioos:station:WAVCIS:CSI06:1,2008-02-04T08:00:00Z,28.8667,-90.4833,10.0,7.09,217.0,,'11111222,11111222,99999999' 
WAVCIS,ioos:station:WAVCIS:CSI06:1,2008-02-04T09:00:00Z,28.8667,-90.4833,10.0,6.323,217.0,,'11111222,11111222,99999999' 
WAVCIS,ioos:station:WAVCIS:CSI06:1,2008-02-04T10:00:00Z,28.8667,-90.4833,10.0,5.512,215.0,,'11111222,11111222,99999999' 
WAVCIS,ioos:station:WAVCIS:CSI06:1,2008-02-04T11:00:00Z,28.8667,-90.4833,10.0,6.669,211.0,,'11111222,11111222,99999999' 
WAVCIS,ioos:station:WAVCIS:CSI06:1,2008-02-04T12:00:00Z,28.8667,-90.4833,10.0,6.742,212.0,,'11111222,11111222,99999999' 
WAVCIS,ioos:station:WAVCIS:CSI06:1,2008-02-04T13:00:00Z,28.8667,-90.4833,10.0,6.551,211.0,,'11111222,11111222,99999999' 
WAVCIS,ioos:station:WAVCIS:CSI06:1,2008-02-04T14:00:00Z,28.8667,-90.4833,10.0,7.39,214.0,,'11111222,11111222,99999999' 
WAVCIS,ioos:station:WAVCIS:CSI06:1,2008-02-04T15:00:00Z,28.8667,-90.4833,10.0,10.11,213.0,,'11111222,11111222,99999999' 
WAVCIS,ioos:station:WAVCIS:CSI06:1,2008-02-04T16:00:00Z,28.8667,-90.4833,10.0,9.26,216.0,,'11111222,11111222,99999999' 
WAVCIS,ioos:station:WAVCIS:CSI06:1,2008-02-04T17:00:00Z,28.8667,-90.4833,10.0,7.12,220.0,,'11111222,11111222,99999999' 
WAVCIS,ioos:station:WAVCIS:CSI06:1,2008-02-04T18:00:00Z,28.8667,-90.4833,10.0,7.9,208.0,,'11111222,11111222,99999999' 
WAVCIS,ioos:station:WAVCIS:CSI06:1,2008-02-04T19:00:00Z,28.8667,-90.4833,10.0,8.48,205.0,,'11111222,11111222,99999999' 
WAVCIS,ioos:station:WAVCIS:CSI06:1,2008-02-04T20:00:00Z,28.8667,-90.4833,10.0,7.07,211.0,,'11111222,11111222,99999999' 
WAVCIS,ioos:station:WAVCIS:CSI06:1,2008-02-04T21:00:00Z,28.8667,-90.4833,10.0,7.01,215.0,,'11111222,11111222,99999999' 
WAVCIS,ioos:station:WAVCIS:CSI06:1,2008-02-04T22:00:00Z,28.8667,-90.4833,10.0,7.22,217.0,,'11111222,11111222,99999999' 
WAVCIS,ioos:station:WAVCIS:CSI06:1,2008-02-04T23:00:00Z,28.8667,-90.4833,10.0,7.66,220.0,,'11111222,11111222,99999999' 
WAVCIS,ioos:station:WAVCIS:CSI06:1,2008-02-05T00:00:00Z,28.8667,-90.4833,10.0,8.92,225.0,,'11111222,11111222,99999999' 
WAVCIS,ioos:station:WAVCIS:CSI06:1,2008-02-05T01:00:00Z,28.8667,-90.4833,10.0,8.33,221.0,,'11111222,11111222,99999999' 
WAVCIS,ioos:station:WAVCIS:CSI06:1,2008-02-05T02:00:00Z,28.8667,-90.4833,10.0,8.93,222.0,,'11111222,11111222,99999999' 
WAVCIS,ioos:station:WAVCIS:CSI06:1,2008-02-05T03:00:00Z,28.8667,-90.4833,10.0,8.56,222.0,,'11111222,11111222,99999999' 
WAVCIS,ioos:station:WAVCIS:CSI06:1,2008-02-05T04:00:00Z,28.8667,-90.4833,10.0,9.92,218.0,,'11111222,11111222,99999999' 
WAVCIS,ioos:station:WAVCIS:CSI06:1,2008-02-05T05:00:00Z,28.8667,-90.4833,10.0,9.45,216.0,,'11111222,11111222,99999999' 
WAVCIS,ioos:station:WAVCIS:CSI06:1,2008-02-05T06:00:00Z,28.8667,-90.4833,10.0,9.76,215.0,,'11111222,11111222,99999999' 
WAVCIS,ioos:station:WAVCIS:CSI06:1,2008-02-05T07:00:00Z,28.8667,-90.4833,10.0,9.46,219.0,,'11111222,11111222,99999999' 
WAVCIS,ioos:station:WAVCIS:CSI06:1,2008-02-05T08:00:00Z,28.8667,-90.4833,10.0,9.64,219.0,,'11111222,11111222,99999999' 
WAVCIS,ioos:station:WAVCIS:CSI06:1,2008-02-05T09:00:00Z,28.8667,-90.4833,10.0,8.25,218.0,,'11111222,11111222,99999999' 
WAVCIS,ioos:station:WAVCIS:CSI06:1,2008-02-05T10:00:00Z,28.8667,-90.4833,10.0,9.5,217.0,,'11111222,11111222,99999999' 
WAVCIS,ioos:station:WAVCIS:CSI06:1,2008-02-05T11:00:00Z,28.8667,-90.4833,10.0,9.73,220.0,,'11111222,11111222,99999999' 
WAVCIS,ioos:station:WAVCIS:CSI06:1,2008-02-05T12:00:00Z,28.8667,-90.4833,10.0,11.01,216.0,,'11111222,11111222,99999999' 
WAVCIS,ioos:station:WAVCIS:CSI06:1,2008-02-05T13:00:00Z,28.8667,-90.4833,10.0,10.53,214.0,,'11111222,11111222,99999999' 
WAVCIS,ioos:station:WAVCIS:CSI06:1,2008-02-05T14:00:00Z,28.8667,-90.4833,10.0,9.46,217.0,,'11111222,11111222,99999999' 
WAVCIS,ioos:station:WAVCIS:CSI06:1,2008-02-05T15:00:00Z,28.8667,-90.4833,10.0,7.77,215.0,,'11111222,11111222,99999999' 
WAVCIS,ioos:station:WAVCIS:CSI06:1,2008-02-05T16:00:00Z,28.8667,-90.4833,10.0,9.29,212.0,,'11111222,11111222,99999999' 
WAVCIS,ioos:station:WAVCIS:CSI06:1,2008-02-05T17:00:00Z,28.8667,-90.4833,10.0,8.87,220.0,,'11111222,11111222,99999999' 
WAVCIS,ioos:station:WAVCIS:CSI06:1,2008-02-05T18:00:00Z,28.8667,-90.4833,10.0,8.97,214.0,,'11111222,11111222,99999999' 
WAVCIS,ioos:station:WAVCIS:CSI06:1,2008-02-05T19:00:00Z,28.8667,-90.4833,10.0,9.33,211.0,,'11111222,11111222,99999999' 
WAVCIS,ioos:station:WAVCIS:CSI06:1,2008-02-05T20:00:00Z,28.8667,-90.4833,10.0,11.62,212.0,,'11111222,11111222,99999999' 
WAVCIS,ioos:station:WAVCIS:CSI06:1,2008-02-05T21:00:00Z,28.8667,-90.4833,10.0,11.68,212.0,,'11111222,11111222,99999999' 
WAVCIS,ioos:station:WAVCIS:CSI06:1,2008-02-05T22:00:00Z,28.8667,-90.4833,10.0,9.7,207.0,,'11111222,11111222,99999999' 
WAVCIS,ioos:station:WAVCIS:CSI06:1,2008-02-05T23:00:00Z,28.8667,-90.4833,10.0,9.91,210.0,,'11111222,11111222,99999999' 
WAVCIS,ioos:station:WAVCIS:CSI06:1,2008-02-06T00:00:00Z,28.8667,-90.4833,10.0,9.51,204.0,,'11111222,11111222,99999999' 
WAVCIS,ioos:station:WAVCIS:CSI06:1,2008-02-06T01:00:00Z,28.8667,-90.4833,10.0,8.82,205.0,,'11111222,11111222,99999999' 
WAVCIS,ioos:station:WAVCIS:CSI06:1,2008-02-06T02:00:00Z,28.8667,-90.4833,10.0,8.6,200.0,,'11111222,11111222,99999999' 
WAVCIS,ioos:station:WAVCIS:CSI06:1,2008-02-06T03:00:00Z,28.8667,-90.4833,10.0,10.04,206.0,,'11111222,11111222,99999999' 
WAVCIS,ioos:station:WAVCIS:CSI06:1,2008-02-06T04:00:00Z,28.8667,-90.4833,10.0,9.65,202.0,,'11111222,11111222,99999999' 
WAVCIS,ioos:station:WAVCIS:CSI06:1,2008-02-06T05:00:00Z,28.8667,-90.4833,10.0,10.94,202.0,,'11111222,11111222,99999999' 
WAVCIS,ioos:station:WAVCIS:CSI06:1,2008-02-06T06:00:00Z,28.8667,-90.4833,10.0,10.86,200.0,,'11111222,11111222,99999999' 
WAVCIS,ioos:station:WAVCIS:CSI06:1,2008-02-06T07:00:00Z,28.8667,-90.4833,10.0,9.51,184.0,,'11111222,11111222,99999999' 
WAVCIS,ioos:station:WAVCIS:CSI06:1,2008-02-06T08:00:00Z,28.8667,-90.4833,10.0,7.63,156.0,,'11111222,11111222,99999999' 
WAVCIS,ioos:station:WAVCIS:CSI06:1,2008-02-06T09:00:00Z,28.8667,-90.4833,10.0,8.16,146.0,,'11111222,11111222,99999999' 
WAVCIS,ioos:station:WAVCIS:CSI06:1,2008-02-06T10:00:00Z,28.8667,-90.4833,10.0,7.25,145.0,,'11111222,11111222,99999999' 
WAVCIS,ioos:station:WAVCIS:CSI06:1,2008-02-06T11:00:00Z,28.8667,-90.4833,10.0,13.36,126.0,,'11111222,11111222,99999999' 
WAVCIS,ioos:station:WAVCIS:CSI06:1,2008-02-06T12:00:00Z,28.8667,-90.4833,10.0,9.38,108.0,,'11111222,11111222,99999999' 
WAVCIS,ioos:station:WAVCIS:CSI06:1,2008-02-06T13:00:00Z,28.8667,-90.4833,10.0,13.46,16.0,,'11111222,11111222,99999999' 
WAVCIS,ioos:station:WAVCIS:CSI06:1,2008-02-06T14:00:00Z,28.8667,-90.4833,10.0,11.76,19.0,,'11111222,11111222,99999999' 
WAVCIS,ioos:station:WAVCIS:CSI06:1,2008-02-06T15:00:00Z,28.8667,-90.4833,10.0,9.96,24.0,,'11111222,11111222,99999999' 
WAVCIS,ioos:station:WAVCIS:CSI06:1,2008-02-06T16:00:00Z,28.8667,-90.4833,10.0,13.28,33.0,,'11111222,11111222,99999999' 
WAVCIS,ioos:station:WAVCIS:CSI06:1,2008-02-06T17:00:00Z,28.8667,-90.4833,10.0,12.76,31.0,,'11111222,11111222,99999999' 
WAVCIS,ioos:station:WAVCIS:CSI06:1,2008-02-06T18:00:00Z,28.8667,-90.4833,10.0,9.05,47.0,,'11111222,11111222,99999999' 
WAVCIS,ioos:station:WAVCIS:CSI06:1,2008-02-06T19:00:00Z,28.8667,-90.4833,10.0,10.36,67.0,,'11111222,11111222,99999999' 
WAVCIS,ioos:station:WAVCIS:CSI06:1,2008-02-06T20:00:00Z,28.8667,-90.4833,10.0,10.54,65.0,,'11111222,11111222,99999999' 
WAVCIS,ioos:station:WAVCIS:CSI06:1,2008-02-06T21:00:00Z,28.8667,-90.4833,10.0,11.4,66.0,,'11111222,11111222,99999999' 
WAVCIS,ioos:station:WAVCIS:CSI06:1,2008-02-06T22:00:00Z,28.8667,-90.4833,10.0,10.36,62.0,,'11111222,11111222,99999999' 
WAVCIS,ioos:station:WAVCIS:CSI06:1,2008-02-06T23:00:00Z,28.8667,-90.4833,10.0,9.76,60.0,,'11111222,11111222,99999999' 
WAVCIS,ioos:station:WAVCIS:CSI06:1,2008-02-07T00:00:00Z,28.8667,-90.4833,10.0,9.95,59.0,,'11111222,11111222,99999999' 
WAVCIS,ioos:station:WAVCIS:CSI06:1,2008-02-07T01:00:00Z,28.8667,-90.4833,10.0,8.73,46.0,,'11111222,11111222,99999999' 
WAVCIS,ioos:station:WAVCIS:CSI06:1,2008-02-07T02:00:00Z,28.8667,-90.4833,10.0,9.69,35.0,,'11111222,11111222,99999999' 
WAVCIS,ioos:station:WAVCIS:CSI06:1,2008-02-07T03:00:00Z,28.8667,-90.4833,10.0,9.13,28.0,,'11111222,11111222,99999999' 
WAVCIS,ioos:station:WAVCIS:CSI06:1,2008-02-07T04:00:00Z,28.8667,-90.4833,10.0,6.726,16.0,,'11111222,11111222,99999999' 
WAVCIS,ioos:station:WAVCIS:CSI06:1,2008-02-07T05:00:00Z,28.8667,-90.4833,10.0,4.072,354.0,,'11111222,11111222,99999999' 
WAVCIS,ioos:station:WAVCIS:CSI06:1,2008-02-07T06:00:00Z,28.8667,-90.4833,10.0,5.33,353.0,,'11111222,11111222,99999999' 
WAVCIS,ioos:station:WAVCIS:CSI06:1,2008-02-07T07:00:00Z,28.8667,-90.4833,10.0,7.35,347.0,,'11111222,11111222,99999999' 
WAVCIS,ioos:station:WAVCIS:CSI06:1,2008-02-07T08:00:00Z,28.8667,-90.4833,10.0,9.67,339.0,,'11111222,11111222,99999999' 
WAVCIS,ioos:station:WAVCIS:CSI06:1,2008-02-07T09:00:00Z,28.8667,-90.4833,10.0,9.77,338.0,,'11111222,11111222,99999999' 
WAVCIS,ioos:station:WAVCIS:CSI06:1,2008-02-07T10:00:00Z,28.8667,-90.4833,10.0,8.73,338.0,,'11111222,11111222,99999999' 
WAVCIS,ioos:station:WAVCIS:CSI06:1,2008-02-07T11:00:00Z,28.8667,-90.4833,10.0,7.35,331.0,,'11111222,11111222,99999999' 
WAVCIS,ioos:station:WAVCIS:CSI06:1,2008-02-07T12:00:00Z,28.8667,-90.4833,10.0,6.105,303.0,,'11111222,11111222,99999999' 
WAVCIS,ioos:station:WAVCIS:CSI06:1,2008-02-07T13:00:00Z,28.8667,-90.4833,10.0,5.732,311.0,,'11111222,11111222,99999999' 
WAVCIS,ioos:station:WAVCIS:CSI06:1,2008-02-07T14:00:00Z,28.8667,-90.4833,10.0,5.557,313.0,,'11111222,11111222,99999999' 
WAVCIS,ioos:station:WAVCIS:CSI06:1,2008-02-07T15:00:00Z,28.8667,-90.4833,10.0,6.126,316.0,,'11111222,11111222,99999999' 
WAVCIS,ioos:station:WAVCIS:CSI06:1,2008-02-07T16:00:00Z,28.8667,-90.4833,10.0,5.025,304.0,,'11111222,11111222,99999999' 
WAVCIS,ioos:station:WAVCIS:CSI06:1,2008-02-07T17:00:00Z,28.8667,-90.4833,10.0,4.598,299.0,,'11111222,11111222,99999999' 
WAVCIS,ioos:station:WAVCIS:CSI06:1,2008-02-07T18:00:00Z,28.8667,-90.4833,10.0,3.763,285.0,,'11111222,11111222,99999999' 
WAVCIS,ioos:station:WAVCIS:CSI06:1,2008-02-07T19:00:00Z,28.8667,-90.4833,10.0,3.925,258.0,,'11111222,11111222,99999999' 
WAVCIS,ioos:station:WAVCIS:CSI06:1,2008-02-07T20:00:00Z,28.8667,-90.4833,10.0,3.3,221.0,,'11111222,11111222,99999999' 
WAVCIS,ioos:station:WAVCIS:CSI06:1,2008-02-07T21:00:00Z,28.8667,-90.4833,10.0,1.428,214.0,,'11111222,11111222,99999999' 
WAVCIS,ioos:station:WAVCIS:CSI06:1,2008-02-07T22:00:00Z,28.8667,-90.4833,10.0,1.501,201.0,,'11111222,11111222,99999999' 
WAVCIS,ioos:station:WAVCIS:CSI06:1,2008-02-07T23:00:00Z,28.8667,-90.4833,10.0,2.549,125.0,,'11111222,11111222,99999999' 
WAVCIS,ioos:station:WAVCIS:CSI06:1,2008-02-08T00:00:00Z,28.8667,-90.4833,10.0,3.417,108.0,,'11111222,11111222,99999999' 
WAVCIS,ioos:station:WAVCIS:CSI06:1,2008-02-08T01:00:00Z,28.8667,-90.4833,10.0,4.928,97.0,,'11111222,11111222,99999999' 
WAVCIS,ioos:station:WAVCIS:CSI06:1,2008-02-08T02:00:00Z,28.8667,-90.4833,10.0,4.825,93.0,,'11111222,11111222,99999999' 
WAVCIS,ioos:station:WAVCIS:CSI06:1,2008-02-08T03:00:00Z,28.8667,-90.4833,10.0,5.125,102.0,,'11111222,11111222,99999999' 
WAVCIS,ioos:station:WAVCIS:CSI06:1,2008-02-08T04:00:00Z,28.8667,-90.4833,10.0,5.0,111.0,,'11111222,11111222,99999999' 
WAVCIS,ioos:station:WAVCIS:CSI06:1,2008-02-08T05:00:00Z,28.8667,-90.4833,10.0,4.863,111.0,,'11111222,11111222,99999999' 
WAVCIS,ioos:station:WAVCIS:CSI06:1,2008-02-08T06:00:00Z,28.8667,-90.4833,10.0,5.157,101.0,,'11111222,11111222,99999999' 
WAVCIS,ioos:station:WAVCIS:CSI06:1,2008-02-08T07:00:00Z,28.8667,-90.4833,10.0,6.389,96.0,,'11111222,11111222,99999999' 
WAVCIS,ioos:station:WAVCIS:CSI06:1,2008-02-08T08:00:00Z,28.8667,-90.4833,10.0,7.68,89.0,,'11111222,11111222,99999999' 
WAVCIS,ioos:station:WAVCIS:CSI06:1,2008-02-08T09:00:00Z,28.8667,-90.4833,10.0,6.588,91.0,,'11111222,11111222,99999999' 
WAVCIS,ioos:station:WAVCIS:CSI06:1,2008-02-08T10:00:00Z,28.8667,-90.4833,10.0,7.02,72.0,,'11111222,11111222,99999999' 
WAVCIS,ioos:station:WAVCIS:CSI06:1,2008-02-08T11:00:00Z,28.8667,-90.4833,10.0,7.56,19.0,,'11111222,11111222,99999999' 
WAVCIS,ioos:station:WAVCIS:CSI06:1,2008-02-08T12:00:00Z,28.8667,-90.4833,10.0,5.736,350.0,,'11111222,11111222,99999999' 
WAVCIS,ioos:station:WAVCIS:CSI06:1,2008-02-08T13:00:00Z,28.8667,-90.4833,10.0,8.41,339.0,,'11111222,11111222,99999999' 
WAVCIS,ioos:station:WAVCIS:CSI06:1,2008-02-08T14:00:00Z,28.8667,-90.4833,10.0,6.616,320.0,,'11111222,11111222,99999999' 
WAVCIS,ioos:station:WAVCIS:CSI06:1,2008-02-08T15:00:00Z,28.8667,-90.4833,10.0,5.604,302.0,,'11111222,11111222,99999999' 
WAVCIS,ioos:station:WAVCIS:CSI06:1,2008-02-08T16:00:00Z,28.8667,-90.4833,10.0,4.44,286.0,,'11111222,11111222,99999999' 
WAVCIS,ioos:station:WAVCIS:CSI06:1,2008-02-08T17:00:00Z,28.8667,-90.4833,10.0,4.278,287.0,,'11111222,11111222,99999999' 
WAVCIS,ioos:station:WAVCIS:CSI06:1,2008-02-08T18:00:00Z,28.8667,-90.4833,10.0,4.022,275.0,,'11111222,11111222,99999999' 
WAVCIS,ioos:station:WAVCIS:CSI06:1,2008-02-08T19:00:00Z,28.8667,-90.4833,10.0,4.301,260.0,,'11111222,11111222,99999999' 
WAVCIS,ioos:station:WAVCIS:CSI06:1,2008-02-08T20:00:00Z,28.8667,-90.4833,10.0,4.118,251.0,,'11111222,11111222,99999999' 
WAVCIS,ioos:station:WAVCIS:CSI06:1,2008-02-08T21:00:00Z,28.8667,-90.4833,10.0,3.327,246.0,,'11111222,11111222,99999999' 
WAVCIS,ioos:station:WAVCIS:CSI06:1,2008-02-08T22:00:00Z,28.8667,-90.4833,10.0,3.353,236.0,,'11111222,11111222,99999999' 
WAVCIS,ioos:station:WAVCIS:CSI06:1,2008-02-08T23:00:00Z,28.8667,-90.4833,10.0,3.768,240.0,,'11111222,11111222,99999999' 
WAVCIS,ioos:station:WAVCIS:CSI06:1,2008-02-09T00:00:00Z,28.8667,-90.4833,10.0,4.108,240.0,,'11111222,11111222,99999999' 
WAVCIS,ioos:station:WAVCIS:CSI06:1,2008-02-09T01:00:00Z,28.8667,-90.4833,10.0,4.25,229.0,,'11111222,11111222,99999999' 
WAVCIS,ioos:station:WAVCIS:CSI06:1,2008-02-09T02:00:00Z,28.8667,-90.4833,10.0,3.862,189.0,,'11111222,11111222,99999999' 
WAVCIS,ioos:station:WAVCIS:CSI06:1,2008-02-09T03:00:00Z,28.8667,-90.4833,10.0,5.046,180.0,,'11111222,11111222,99999999' 
WAVCIS,ioos:station:WAVCIS:CSI06:1,2008-02-09T04:00:00Z,28.8667,-90.4833,10.0,5.493,171.0,,'11111222,11111222,99999999' 
WAVCIS,ioos:station:WAVCIS:CSI06:1,2008-02-09T05:00:00Z,28.8667,-90.4833,10.0,4.867,158.0,,'11111222,11111222,99999999' 
WAVCIS,ioos:station:WAVCIS:CSI06:1,2008-02-09T06:00:00Z,28.8667,-90.4833,10.0,4.777,161.0,,'11111222,11111222,99999999' 